sat.trackr.live / text

‹ back to catalog

STARLINK-31577

NORAD 59203 · 2024-046C

PAYLOAD ACTIVE UNKNOWN

§ Identity

Operator
Country
US
Launch date
2024-03-11
Launch site
AFWTR
Launch vehicle
Mass (kg)
RCS (m²)

Purposes: comms

External: N2YO · Heavens-Above · Gunter

§ Orbital elements

Epoch: 2026-09-20T22:00:03.000096Z

Period
93.85 min
Inclination
53.1604°
Eccentricity
0.0001217
Mean motion
15.34391936 rev/d
Perigee alt
461.9 km
Apogee alt
463.6 km
Semi-major
6,840.9 km
B*
-2.9785e-5
RAAN
323.7269°
Arg perigee
82.5130°
Mean anomaly
54.1512°
Rev number
588

§ Raw data

STARLINK-315771 59203U 24046C   26263.91670139 -.00001382  00000+0 -29785-4 0  99902 59203  53.1604 323.7269 0001217  82.5130  54.1512 15.34391936  5885

JSON: /api/v1/satellites/59203 · /tle

For live sub-satellite position, see the globe view (requires WebGL).

§ Visibility from observer

Set your observer location to see the next 7 days of passes ≥ 10°. The values pass through the URL so the page stays shareable.

No JS? Fill the form by hand. The geolocation button needs JavaScript.